Time,TemperatureF,DewpointF,PressureIn,WindDirection,WindDirectionDegrees,WindSpeedMPH,WindSpeedGustMPH,Humidity,HourlyPrecipIn,Conditions,Clouds,dailyrainin,SolarRadiationWatts/m^2,SoftwareType,DateUTC
2013-04-17 00:22:00,30.0,25.0,-100.00,WSW,243,1.0,4.0,80,0.00,,,0.00,1.000000,,2013-04-17 06:22:00,
2013-04-17 00:32:00,30.0,25.0,-100.00,WSW,243,1.0,4.0,80,0.00,,,0.00,1.000000,,2013-04-17 06:32:00,
2013-04-17 00:42:00,30.0,25.0,-100.00,WSW,243,1.0,4.0,80,0.00,,,0.00,1.000000,,2013-04-17 06:42:00,
2013-04-17 00:52:00,30.0,25.0,-100.00,WSW,243,1.0,4.0,80,0.00,,,0.00,1.000000,,2013-04-17 06:52:00,
2013-04-17 01:22:00,31.0,26.0,-100.00,WSW,237,1.0,4.0,81,0.00,,,0.00,1.000000,,2013-04-17 07:22:00,
2013-04-17 01:32:00,31.0,26.0,-100.00,WSW,237,1.0,4.0,81,0.00,,,0.00,1.000000,,2013-04-17 07:32:00,
2013-04-17 01:42:00,31.0,26.0,-100.00,WSW,237,1.0,4.0,81,0.00,,,0.00,1.000000,,2013-04-17 07:42:00,
2013-04-17 01:52:00,31.0,26.0,-100.00,WSW,237,1.0,4.0,81,0.00,,,0.00,1.000000,,2013-04-17 07:52:00,
2013-04-17 02:22:00,31.0,27.0,-100.00,SW,223,2.0,3.0,85,0.00,,,0.00,1.000000,,2013-04-17 08:22:00,
2013-04-17 02:32:00,31.0,27.0,-100.00,SW,223,2.0,3.0,85,0.00,,,0.00,1.000000,,2013-04-17 08:32:00,
2013-04-17 02:42:00,31.0,27.0,-100.00,SW,223,2.0,3.0,85,0.00,,,0.00,1.000000,,2013-04-17 08:42:00,
2013-04-17 02:52:00,31.0,27.0,-100.00,SW,223,2.0,3.0,85,0.00,,,0.00,1.000000,,2013-04-17 08:52:00,
2013-04-17 03:22:00,30.0,27.0,-100.00,WSW,255,2.0,4.0,90,0.00,,,0.00,1.000000,,2013-04-17 09:22:00,
2013-04-17 03:33:00,30.0,27.0,-100.00,WSW,255,2.0,4.0,90,0.00,,,0.00,1.000000,,2013-04-17 09:33:00,
2013-04-17 03:42:00,30.0,27.0,-100.00,WSW,255,2.0,4.0,90,0.00,,,0.00,1.000000,,2013-04-17 09:42:00,
2013-04-17 03:52:00,30.0,27.0,-100.00,WSW,255,2.0,4.0,90,0.00,,,0.00,1.000000,,2013-04-17 09:52:00,
2013-04-17 04:23:00,30.0,28.0,-100.00,West,269,2.0,4.0,91,0.00,,,0.00,1.000000,,2013-04-17 10:23:00,
2013-04-17 04:32:00,30.0,28.0,-100.00,West,269,2.0,4.0,91,0.00,,,0.00,1.000000,,2013-04-17 10:32:00,
2013-04-17 04:42:00,30.0,28.0,-100.00,West,269,2.0,4.0,91,0.00,,,0.00,1.000000,,2013-04-17 10:42:00,
2013-04-17 04:52:00,30.0,28.0,-100.00,West,269,2.0,4.0,91,0.00,,,0.00,1.000000,,2013-04-17 10:52:00,
2013-04-17 05:22:00,30.0,28.0,-100.00,West,262,1.0,4.0,92,0.00,,,0.00,1.000000,,2013-04-17 11:22:00,
2013-04-17 05:32:00,30.0,28.0,-100.00,West,262,1.0,4.0,92,0.00,,,0.00,1.000000,,2013-04-17 11:32:00,
2013-04-17 05:42:00,30.0,28.0,-100.00,West,262,1.0,4.0,92,0.00,,,0.00,1.000000,,2013-04-17 11:42:00,
2013-04-17 05:52:00,30.0,28.0,-100.00,West,262,1.0,4.0,92,0.00,,,0.00,1.000000,,2013-04-17 11:52:00,
2013-04-17 06:22:00,29.0,27.0,-100.00,WSW,250,2.0,5.0,92,0.00,,,0.00,1.000000,,2013-04-17 12:22:00,
2013-04-17 06:32:00,29.0,27.0,-100.00,WSW,250,2.0,5.0,92,0.00,,,0.00,1.000000,,2013-04-17 12:32:00,
2013-04-17 06:42:00,29.0,27.0,-100.00,WSW,250,2.0,5.0,92,0.00,,,0.00,1.000000,,2013-04-17 12:42:00,
2013-04-17 06:52:00,29.0,27.0,-100.00,WSW,250,2.0,5.0,92,0.00,,,0.00,1.000000,,2013-04-17 12:52:00,
2013-04-17 07:22:00,28.0,26.0,-100.00,West,265,2.0,5.0,92,0.00,,,0.00,1.000000,,2013-04-17 13:22:00,
2013-04-17 07:32:00,28.0,26.0,-100.00,West,265,2.0,5.0,92,0.00,,,0.00,1.000000,,2013-04-17 13:32:00,
2013-04-17 07:42:00,28.0,26.0,-100.00,West,265,2.0,5.0,92,0.00,,,0.00,1.000000,,2013-04-17 13:42:00,
2013-04-17 07:52:00,28.0,26.0,-100.00,West,265,2.0,5.0,92,0.00,,,0.00,1.000000,,2013-04-17 13:52:00,
2013-04-17 08:22:00,29.0,27.0,-100.00,West,263,3.0,7.0,91,0.00,,,0.00,25.000000,,2013-04-17 14:22:00,
2013-04-17 08:32:00,29.0,27.0,-100.00,West,263,3.0,7.0,91,0.00,,,0.00,25.000000,,2013-04-17 14:32:00,
2013-04-17 08:42:00,29.0,27.0,-100.00,West,263,3.0,7.0,91,0.00,,,0.00,25.000000,,2013-04-17 14:42:00,
2013-04-17 08:52:00,29.0,27.0,-100.00,West,263,3.0,7.0,91,0.00,,,0.00,25.000000,,2013-04-17 14:52:00,
2013-04-17 09:22:00,27.0,25.0,-100.00,West,273,7.0,17.0,91,0.00,,,0.00,22.000000,,2013-04-17 15:22:00,
2013-04-17 09:33:00,27.0,25.0,-100.00,West,273,7.0,17.0,91,0.00,,,0.00,22.000000,,2013-04-17 15:33:00,
2013-04-17 09:42:00,27.0,25.0,-100.00,West,273,7.0,17.0,91,0.00,,,0.00,22.000000,,2013-04-17 15:42:00,
2013-04-17 09:52:00,27.0,25.0,-100.00,West,273,7.0,17.0,91,0.00,,,0.00,22.000000,,2013-04-17 15:52:00,
2013-04-17 10:22:00,26.0,23.0,-100.00,WSW,258,5.0,18.0,90,0.00,,,0.00,51.000000,,2013-04-17 16:22:00,
2013-04-17 10:32:00,26.0,23.0,-100.00,WSW,258,5.0,18.0,90,0.00,,,0.00,51.000000,,2013-04-17 16:32:00,
2013-04-17 10:42:00,26.0,23.0,-100.00,WSW,258,5.0,18.0,90,0.00,,,0.00,51.000000,,2013-04-17 16:42:00,
2013-04-17 10:52:00,26.0,23.0,-100.00,WSW,258,5.0,18.0,90,0.00,,,0.00,51.000000,,2013-04-17 16:52:00,
2013-04-17 11:22:00,27.0,24.0,-100.00,West,278,4.0,11.0,89,0.00,,,-99.99,140.000000,,2013-04-17 17:22:00,
2013-04-17 11:33:00,27.0,24.0,-100.00,West,278,4.0,11.0,89,0.00,,,-99.99,140.000000,,2013-04-17 17:33:00,
2013-04-17 11:42:00,27.0,24.0,-100.00,West,278,4.0,11.0,89,0.00,,,-99.99,140.000000,,2013-04-17 17:42:00,
2013-04-17 11:51:00,27.0,24.0,-100.00,West,278,4.0,11.0,89,0.00,,,-99.99,140.000000,,2013-04-17 17:51:00,
2013-04-17 12:22:00,26.0,23.0,-100.00,West,268,5.0,11.0,87,0.00,,,0.00,117.000000,,2013-04-17 18:22:00,
2013-04-17 12:32:00,26.0,23.0,-100.00,West,268,5.0,11.0,87,0.00,,,0.00,117.000000,,2013-04-17 18:32:00,
2013-04-17 12:42:00,26.0,23.0,-100.00,West,268,5.0,11.0,87,0.00,,,0.00,117.000000,,2013-04-17 18:42:00,
2013-04-17 12:52:00,26.0,23.0,-100.00,West,268,5.0,11.0,87,0.00,,,0.00,117.000000,,2013-04-17 18:52:00,
2013-04-17 13:22:00,28.0,24.0,-100.00,West,278,5.0,11.0,83,0.00,,,0.00,150.000000,,2013-04-17 19:22:00,
2013-04-17 13:32:00,28.0,24.0,-100.00,West,278,5.0,11.0,83,0.00,,,0.00,150.000000,,2013-04-17 19:32:00,
2013-04-17 13:42:00,28.0,24.0,-100.00,West,278,5.0,11.0,83,0.00,,,0.00,150.000000,,2013-04-17 19:42:00,
2013-04-17 13:52:00,28.0,24.0,-100.00,West,278,5.0,11.0,83,0.00,,,0.00,150.000000,,2013-04-17 19:52:00,
2013-04-17 14:22:00,30.0,25.0,-100.00,WNW,285,5.0,11.0,82,0.00,,,0.00,458.000000,,2013-04-17 20:22:00,
2013-04-17 14:32:00,30.0,25.0,-100.00,WNW,285,5.0,11.0,82,0.00,,,0.00,458.000000,,2013-04-17 20:32:00,
2013-04-17 14:42:00,30.0,25.0,-100.00,WNW,285,5.0,11.0,82,0.00,,,0.00,458.000000,,2013-04-17 20:42:00,
2013-04-17 14:52:00,30.0,25.0,-100.00,WNW,285,5.0,11.0,82,0.00,,,0.00,458.000000,,2013-04-17 20:52:00,
2013-04-17 15:22:00,26.0,22.0,-100.00,West,274,6.0,12.0,85,0.11,,,0.11,427.000000,,2013-04-17 21:22:00,
2013-04-17 15:32:00,26.0,22.0,-100.00,West,274,6.0,12.0,85,0.11,,,0.11,427.000000,,2013-04-17 21:32:00,
2013-04-17 15:42:00,26.0,22.0,-100.00,West,274,6.0,12.0,85,0.11,,,0.11,427.000000,,2013-04-17 21:42:00,
2013-04-17 15:53:00,26.0,22.0,-100.00,West,274,6.0,12.0,85,0.11,,,0.11,427.000000,,2013-04-17 21:53:00,
2013-04-17 16:22:00,26.0,22.0,-100.00,West,273,5.0,11.0,84,0.03,,,0.14,262.000000,,2013-04-17 22:22:00,
2013-04-17 16:33:00,26.0,22.0,-100.00,West,273,5.0,11.0,84,0.03,,,0.14,262.000000,,2013-04-17 22:33:00,
2013-04-17 16:42:00,26.0,22.0,-100.00,West,273,5.0,11.0,84,0.03,,,0.14,262.000000,,2013-04-17 22:42:00,
2013-04-17 16:52:00,26.0,22.0,-100.00,West,273,5.0,11.0,84,0.03,,,0.14,262.000000,,2013-04-17 22:52:00,
2013-04-17 17:22:00,26.0,22.0,-100.00,WNW,283,5.0,10.0,84,0.02,,,0.16,178.000000,,2013-04-17 23:22:00,
2013-04-17 17:32:00,26.0,22.0,-100.00,WNW,283,5.0,10.0,84,0.02,,,0.16,178.000000,,2013-04-17 23:32:00,
2013-04-17 17:42:00,26.0,22.0,-100.00,WNW,283,5.0,10.0,84,0.02,,,0.16,178.000000,,2013-04-17 23:42:00,
2013-04-17 17:52:00,26.0,22.0,-100.00,WNW,283,5.0,10.0,84,0.02,,,0.16,178.000000,,2013-04-17 23:52:00,
2013-04-17 18:22:00,26.0,21.0,-100.00,West,271,5.0,11.0,82,0.05,,,0.21,172.000000,,2013-04-18 00:22:00,
2013-04-17 18:32:00,26.0,21.0,-100.00,West,271,5.0,11.0,82,0.05,,,0.21,172.000000,,2013-04-18 00:32:00,
2013-04-17 18:42:00,26.0,21.0,-100.00,West,271,5.0,11.0,82,0.05,,,0.21,172.000000,,2013-04-18 00:42:00,
2013-04-17 18:52:00,26.0,21.0,-100.00,West,271,5.0,11.0,82,0.05,,,0.21,172.000000,,2013-04-18 00:52:00,
2013-04-17 19:22:00,23.0,18.0,-100.00,WNW,298,4.0,9.0,80,0.00,,,0.21,68.000000,,2013-04-18 01:22:00,
2013-04-17 19:32:00,23.0,18.0,-100.00,WNW,298,4.0,9.0,80,0.00,,,0.21,68.000000,,2013-04-18 01:32:00,
2013-04-17 19:42:00,23.0,18.0,-100.00,WNW,298,4.0,9.0,80,0.00,,,0.21,68.000000,,2013-04-18 01:42:00,
2013-04-17 19:52:00,23.0,18.0,-100.00,WNW,298,4.0,9.0,80,0.00,,,0.21,68.000000,,2013-04-18 01:52:00,
2013-04-17 20:22:00,20.0,14.0,-100.00,NW,324,4.0,9.0,76,0.00,,,0.21,16.000000,,2013-04-18 02:22:00,
2013-04-17 20:32:00,20.0,14.0,-100.00,NW,324,4.0,9.0,76,0.00,,,0.21,16.000000,,2013-04-18 02:32:00,
2013-04-17 20:42:00,20.0,14.0,-100.00,NW,324,4.0,9.0,76,0.00,,,0.21,16.000000,,2013-04-18 02:42:00,
2013-04-17 20:52:00,20.0,14.0,-100.00,NW,324,4.0,9.0,76,0.00,,,0.21,16.000000,,2013-04-18 02:52:00,
2013-04-17 21:22:00,18.0,12.0,-100.00,NNE,20,2.0,7.0,78,0.00,,,0.21,1.000000,,2013-04-18 03:22:00,
2013-04-17 21:33:00,18.0,12.0,-100.00,NNE,20,2.0,7.0,78,0.00,,,0.21,1.000000,,2013-04-18 03:33:00,
2013-04-17 21:43:00,18.0,12.0,-100.00,NNE,20,2.0,7.0,78,0.00,,,0.21,1.000000,,2013-04-18 03:43:00,
2013-04-17 21:53:00,18.0,12.0,-100.00,NNE,20,2.0,7.0,78,0.00,,,0.21,1.000000,,2013-04-18 03:53:00,
2013-04-17 22:23:00,16.0,9.0,-100.00,NNW,334,3.0,10.0,72,0.00,,,0.21,1.000000,,2013-04-18 04:23:00,
2013-04-17 22:33:00,16.0,9.0,-100.00,NNW,334,3.0,10.0,72,0.00,,,0.21,1.000000,,2013-04-18 04:33:00,
2013-04-17 22:43:00,16.0,9.0,-100.00,NNW,334,3.0,10.0,72,0.00,,,0.21,1.000000,,2013-04-18 04:43:00,
2013-04-17 22:52:00,16.0,9.0,-100.00,NNW,334,3.0,10.0,72,0.00,,,0.21,1.000000,,2013-04-18 04:52:00,
2013-04-17 23:22:00,16.0,8.0,-100.00,WNW,292,3.0,8.0,71,0.00,,,0.21,1.000000,,2013-04-18 05:22:00,
2013-04-17 23:32:00,16.0,8.0,-100.00,WNW,292,3.0,8.0,71,0.00,,,0.21,1.000000,,2013-04-18 05:32:00,
2013-04-17 23:42:00,16.0,8.0,-100.00,WNW,292,3.0,8.0,71,0.00,,,0.21,1.000000,,2013-04-18 05:42:00,
2013-04-17 23:52:00,16.0,8.0,-100.00,WNW,292,3.0,8.0,71,0.00,,,0.21,1.000000,,2013-04-18 05:52:00,